Theta_e
306 306 306 306 306 306 306 305 306 305 305 305 306 306 306 307 307 307 307 307 307 306 306 305 305 304 303 302 301 300 299 298 297 296 295 295 294 294 294 295 295 295
304 304 304 305 305 306 305 305 305 305 305 305 305 305 305 305 306 306 306 306 306 306 306 306 305 305 304 303 302 301 300 299 298 297 296 295 294 294 294 295 295 295
303 303 303 303 304 304 304 304 304 304 305 305 305 305 305 305 305 305 305 305 305 305 305 305 305 304 304 303 302 302 301 300 299 298 297 296 295 294 294 294 294 294
302 302 302 302 303 303 303 303 304 304 304 304 305 305 305 305 304 304 304 304 304 304 304 304 304 304 303 303 302 302 301 300 299 298 297 296 295 294 294 294 294 294
301 301 301 302 302 302 303 303 304 304 304 304 304 304 304 304 304 304 304 304 304 304 304 303 303 303 303 302 302 301 301 300 299 298 297 296 295 295 294 294 293 293
302 300 300 300 301 301 302 303 303 303 304 303 304 303 303 303 303 304 304 304 304 304 303 303 303 303 302 302 301 301 301 300 299 299 298 297 296 295 294 293 293 293
303 302 301 299 299 299 300 301 302 302 303 303 303 303 303 303 303 303 303 303 303 303 303 303 303 303 302 302 301 301 301 300 300 299 299 298 296 295 294 294 293 293
303 304 303 302 301 300 300 300 300 301 301 301 302 302 302 302 302 302 302 302 302 302 302 302 302 302 302 302 302 301 301 300 300 300 299 298 297 296 295 294 293 293
302 303 303 303 303 303 302 301 300 300 300 300 301 301 301 301 301 301 301 301 301 301 301 301 301 301 301 302 302 302 301 300 300 300 300 299 298 297 296 295 293 293
302 302 301 302 302 302 302 302 301 300 299 299 299 299 299 300 300 300 300 300 300 301 301 300 300 300 300 300 301 302 301 301 300 300 300 299 299 298 297 296 294 293
301 301 301 300 301 301 301 301 301 300 299 298 298 298 298 298 298 299 299 299 299 300 300 300 300 300 299 299 300 300 301 301 300 300 299 299 299 299 298 297 296 294
300 300 300 300 300 300 299 299 299 300 300 299 298 297 297 297 297 297 298 298 299 299 299 299 299 299 299 299 299 299 299 300 300 300 299 299 299 299 299 298 297 296
297 298 298 299 299 299 299 299 298 298 299 299 299 298 297 296 296 296 296 297 298 298 298 298 298 298 299 299 298 298 298 299 299 300 299 299 299 298 298 298 298 297
293 294 295 296 297 297 298 298 298 298 298 298 298 298 297 296 295 295 295 296 296 297 297 297 297 297 298 298 298 298 297 297 298 299 299 299 298 298 297 297 297 297
292 292 293 294 295 296 296 297 297 298 298 297 297 297 297 297 295 295 294 294 295 295 295 296 296 296 297 297 297 297 297 297 297 297 298 298 298 298 297 297 296 296
291 292 292 293 293 294 295 295 296 296 297 297 297 297 296 296 296 295 294 293 294 294 294 294 295 295 295 295 296 296 296 296 296 296 297 297 298 298 297 297 296 295
290 291 292 292 293 293 293 294 294 295 296 296 297 297 297 296 295 295 294 293 293 293 293 294 294 294 294 294 295 295 295 295 295 295 295 296 297 297 297 297 296 295
289 290 291 291 292 293 293 293 292 293 294 295 296 297 297 297 296 295 294 294 293 292 293 293 293 293 293 294 294 294 294 294 294 294 294 295 295 296 296 296 296 295
288 288 288 289 290 291 292 292 292 292 292 293 294 295 296 297 297 296 294 293 293 292 292 292 292 293 292 293 293 293 293 293 293 293 293 294 294 295 295 295 295 295
287 287 287 287 288 288 289 290 291 292 291 291 292 293 294 295 296 296 295 293 292 292 292 292 292 292 292 292 292 292 292 292 292 292 292 293 293 293 294 294 294 294
286 286 286 286 286 287 287 288 289 290 290 291 291 291 292 293 294 295 295 294 292 291 292 292 292 291 291 291 291 291 291 291 291 291 292 292 292 292 293 293 293 293
286 286 286 286 286 286 286 286 287 287 288 289 290 290 291 291 292 293 294 294 293 291 291 291 291 291 291 291 291 290 290 290 290 290 291 291 291 291 291 292 292 292
285 285 285 286 286 286 286 286 286 286 287 287 288 289 290 290 290 291 291 293 293 293 291 291 291 291 291 291 290 290 290 289 289 289 290 290 291 291 291 291 291 291
285 285 285 285 285 285 285 285 285 286 286 286 286 287 288 289 289 290 290 291 292 293 293 292 290 290 290 290 290 290 289 289 289 289 289 290 290 290 290 290 290 290
285 285 285 285 285 285 285 285 285 285 285 285 285 285 286 287 287 289 290 290 290 291 292 293 292 290 289 289 289 289 289 289 288 288 288 289 289 289 289 289 289 289
285 285 285 285 285 285 285 285 285 285 285 285 285 285 285 285 286 287 288 289 290 290 291 292 293 292 290 288 288 289 289 289 288 288 288 288 288 288 288 289 289 289
Wind_Speed
28 30 31 32 34 36 38 40 40 41 42 42 42 42 41 40 40 42 44 45 46 46 46 47 48 49 50 51 51 50 49 48 47 46 46 47 46 45 45 44 42 41
27 29 31 33 33 35 37 38 39 39 40 41 41 41 41 40 40 41 42 44 45 45 45 46 46 47 48 49 50 50 50 50 49 48 48 48 47 47 47 45 44 43
27 29 31 33 34 34 36 37 39 39 39 39 40 40 40 40 40 40 41 42 44 45 45 46 46 47 47 48 49 50 50 50 50 50 49 49 49 48 48 47 46 45
23 26 29 31 33 34 35 36 38 38 39 39 39 39 40 40 40 40 40 41 42 43 44 45 46 47 47 48 49 50 50 51 50 50 50 50 50 50 49 48 48 47
21 22 25 29 30 30 32 33 35 36 37 39 39 39 40 40 41 41 41 41 41 42 42 43 45 46 47 48 49 50 51 51 51 51 51 51 51 51 50 50 50 49
20 19 21 25 27 28 29 30 31 32 34 35 37 39 40 41 42 42 42 42 42 42 42 42 43 44 45 47 48 50 51 51 51 51 52 52 52 52 51 51 51 51
22 20 18 20 23 25 28 28 29 31 31 32 35 37 39 41 42 43 43 44 44 43 43 43 43 43 44 45 47 49 50 51 51 51 52 53 53 53 53 53 52 52
23 22 20 19 20 21 23 25 28 30 30 32 34 35 37 40 42 43 44 44 45 45 45 45 45 44 44 44 46 48 49 51 52 52 52 53 54 55 54 54 54 53
23 22 21 21 21 21 21 22 23 26 28 30 32 33 35 38 41 42 43 44 45 46 47 47 47 46 45 44 45 47 48 50 51 52 52 53 55 55 55 55 55 55
25 24 23 22 22 22 23 22 22 22 24 26 28 30 33 36 39 42 44 44 45 46 47 48 49 49 48 46 46 46 47 49 50 52 53 54 54 55 55 55 56 56
26 27 27 26 25 25 25 24 24 23 23 24 25 27 29 32 36 40 43 44 45 45 46 47 48 49 49 49 48 48 47 49 50 52 53 53 54 54 55 55 56 56
25 26 27 28 28 28 27 26 26 26 26 25 25 25 27 29 33 37 41 43 43 44 46 46 46 48 49 50 50 49 49 49 50 52 53 53 54 54 55 55 56 56
25 25 26 26 27 28 28 28 26 26 27 28 27 27 27 28 31 35 39 40 41 43 46 47 47 47 49 50 51 51 51 50 50 52 53 54 54 55 56 56 56 56
28 26 25 25 25 26 27 27 27 26 26 27 28 29 28 28 29 32 36 39 41 43 44 46 47 49 50 51 52 52 53 52 52 52 53 54 56 56 57 57 57 56
30 29 27 26 26 25 26 27 28 28 27 26 26 29 30 29 29 31 34 37 40 42 44 46 48 50 51 52 53 53 54 54 53 53 54 55 56 56 57 59 59 58
32 31 31 30 29 28 27 27 28 28 29 28 27 26 28 29 30 30 32 35 38 41 43 46 49 50 51 52 53 53 54 54 54 54 55 55 55 56 58 60 60 60
33 32 32 33 32 31 30 29 29 29 29 30 30 28 26 26 28 29 30 32 35 39 42 45 48 50 50 51 52 53 53 54 54 55 55 55 55 57 59 59 60 61
33 33 33 33 33 33 32 31 31 31 30 30 30 30 29 28 27 28 30 30 33 36 40 43 46 47 49 50 51 51 52 53 54 55 55 55 56 57 58 59 59 60
33 33 33 33 33 33 33 33 33 32 31 31 31 31 31 31 29 28 29 29 31 34 38 41 43 45 47 48 49 50 51 51 53 54 55 55 56 56 57 58 59 60
34 34 34 34 33 33 34 34 34 33 32 32 32 32 32 32 32 31 29 28 29 31 35 38 41 43 45 46 48 49 50 50 51 53 54 55 55 55 56 57 59 60
34 35 35 35 34 34 35 34 34 34 33 33 33 33 33 34 34 34 32 29 27 29 32 35 37 40 42 44 46 47 48 49 50 51 53 54 55 55 56 57 58 59
35 36 36 36 36 36 36 36 36 35 35 34 34 34 34 34 35 35 35 33 29 28 30 33 34 35 38 42 44 45 46 47 49 50 52 53 54 55 56 57 58 59
36 37 38 38 38 39 39 38 38 37 37 36 36 37 36 36 36 37 37 36 34 31 31 32 33 32 33 37 40 43 45 46 47 49 50 52 53 54 55 56 57 58
36 37 39 40 40 41 41 41 41 40 39 38 38 38 39 39 39 40 39 38 38 35 33 32 32 31 31 33 36 40 43 45 46 48 50 51 52 53 55 56 57 57
36 37 38 40 41 42 42 43 43 42 41 41 40 40 40 40 40 42 42 41 40 38 36 33 32 32 31 33 35 37 40 43 45 47 50 51 51 53 54 55 56 57
38 38 38 40 41 43 44 44 45 45 44 44 44 43 43 42 41 42 43 44 42 41 39 36 34 32 31 32 34 36 39 41 43 46 49 50 51 51 52 54 55 56
Wind_Direction
279 273 271 271 270 268 265 264 264 263 263 263 263 263 262 260 256 253 250 248 246 246 245 245 244 243 243 241 240 240 239 239 239 238 238 238 238 238 238 239 239 239
283 276 272 271 271 270 268 265 265 265 265 266 265 265 264 262 259 257 255 253 251 249 248 247 246 245 244 243 242 241 240 240 239 238 238 238 238 238 238 239 239 239
286 280 275 273 271 271 270 267 266 266 267 267 267 266 265 264 263 261 259 257 255 254 252 250 249 247 246 244 243 242 242 241 240 240 239 239 238 238 239 239 239 238
293 287 283 278 275 274 272 270 269 269 268 268 268 268 267 266 265 263 261 260 258 256 255 254 252 251 249 247 245 244 243 242 242 241 240 240 239 238 238 238 238 238
306 296 291 286 281 279 276 274 274 273 272 271 271 270 269 267 266 265 263 262 260 258 257 255 254 253 251 249 248 246 244 243 242 241 240 240 239 239 238 238 237 237
325 309 297 290 286 283 281 280 279 278 277 276 275 273 271 270 269 267 266 264 262 260 258 257 255 254 252 251 250 248 247 245 244 242 241 241 240 239 239 238 237 237
340 328 312 300 292 287 284 284 283 282 282 281 279 276 274 273 272 270 269 267 265 262 260 258 257 255 254 252 251 250 248 247 245 244 243 242 241 239 239 238 238 237
345 338 328 315 306 298 293 291 289 287 286 284 282 279 278 276 274 273 272 270 268 266 263 260 258 256 254 253 252 251 249 248 246 245 244 243 241 240 239 238 237 237
348 343 335 325 316 307 300 295 293 291 288 285 282 281 279 277 276 274 273 271 270 268 266 263 260 257 254 253 253 252 251 249 248 247 245 243 242 241 240 238 237 237
353 351 345 337 327 316 306 298 293 290 289 287 284 282 279 278 277 275 272 271 269 268 267 265 263 260 257 254 253 253 252 251 249 248 247 245 244 243 242 240 239 238
358 356 354 349 342 332 321 311 302 295 292 290 288 286 282 279 277 275 273 271 269 269 268 267 266 264 261 258 255 253 253 252 251 249 248 247 246 245 243 242 241 240
359 359 358 356 351 345 338 327 315 305 298 294 292 291 288 284 280 276 274 273 273 273 270 268 266 265 264 262 259 255 253 252 252 251 250 248 247 246 244 243 242 241
357 358 357 356 355 353 349 343 333 319 306 298 295 292 291 289 285 281 278 276 276 275 272 270 267 265 265 263 260 257 254 252 251 251 251 249 247 246 245 244 243 242
352 353 352 352 352 352 353 352 348 338 323 307 298 292 291 290 288 287 284 280 278 275 272 270 267 266 265 262 260 258 255 252 250 250 250 249 248 246 245 244 243 242
345 345 346 347 346 347 349 351 351 350 342 328 311 298 292 290 289 288 285 282 280 276 273 270 267 266 265 262 260 258 256 254 251 249 249 249 248 247 245 244 242 241
338 338 339 340 341 342 343 345 346 348 348 344 334 317 301 293 290 288 286 284 281 278 275 272 269 268 265 263 261 259 258 256 253 251 249 248 248 247 246 245 243 241
334 333 333 333 334 335 337 339 340 341 343 344 343 337 323 305 293 287 288 288 285 281 277 274 272 270 267 265 263 260 258 256 254 253 250 249 248 248 247 246 244 242
332 331 330 329 329 329 330 332 334 335 337 338 339 341 337 327 311 297 291 289 288 284 280 276 275 272 269 267 264 262 259 257 255 254 252 250 248 248 249 247 246 244
330 330 330 330 328 327 325 326 327 329 332 333 333 334 336 334 328 315 301 292 289 286 283 280 278 275 272 268 266 263 261 258 256 254 253 251 250 249 249 249 247 246
327 328 329 329 329 328 325 323 322 323 325 328 328 328 329 331 331 327 315 302 292 288 285 283 281 277 274 270 267 265 262 259 257 255 253 253 252 250 250 249 249 248
323 325 326 327 328 328 326 324 322 320 320 322 322 323 324 324 326 327 322 312 299 291 287 284 282 280 276 272 269 266 263 260 257 255 253 253 252 251 249 249 249 249
319 320 321 323 324 324 325 325 324 322 321 320 318 317 317 318 320 321 321 318 308 296 288 283 282 281 279 276 272 268 264 260 257 254 253 253 252 251 249 248 247 247
315 316 317 318 319 320 320 321 322 322 322 321 318 315 313 314 315 315 316 317 314 306 295 287 284 282 280 277 275 271 265 260 256 254 253 252 252 251 250 249 248 247
308 310 312 313 314 315 315 316 317 318 318 319 318 315 313 311 310 310 311 312 314 312 305 295 287 284 281 277 275 272 267 261 257 254 253 253 251 250 249 249 248 248
301 303 304 306 307 309 310 312 313 314 315 315 315 314 313 311 308 307 306 306 308 310 309 303 294 287 281 277 274 271 267 263 257 254 253 252 250 248 248 247 247 247
297 298 299 300 301 303 305 307 308 310 312 313 313 312 312 310 308 306 303 302 302 304 306 305 301 294 284 277 274 271 267 262 257 253 252 251 250 249 248 248 247 247